• In Deutschland
  • Länderverzeichnis
  • Für 7 Tage
  • Wassertemperatur
  • Satellitenkarten
  • Wetterkarte
  • Widgets
  • user-avatar
    Anmelden

    Stündliche Wetter Michurine

    Heute, 23 Juli, Montag

    Zeit Temperatur Niederschläge Wind Luftdruck Luftfeuchtigkeit
    00:00 +24°C° 0,4 mm 2 m/S 742 mmHg 77%
    01:00 +23°C° 0,1 mm 2 m/S 742 mmHg 77%
    02:00 +23°C° 0,1 mm 2 m/S 742 mmHg 78%
    03:00 +23°C° 0 mm 1 m/S 742 mmHg 80%
    04:00 +23°C° 0,2 mm 1 m/S 742 mmHg 80%
    05:00 +23°C° 0,2 mm 1 m/S 742 mmHg 80%
    06:00 +23°C° 0,2 mm 1 m/S 742 mmHg 80%
    07:00 +25°C° 0,1 mm 1 m/S 742 mmHg 74%
    08:00 +26°C° 0,1 mm 1 m/S 742 mmHg 67%
    09:00 +28°C° 0,1 mm 1 m/S 742 mmHg 60%
    10:00 +29°C° 0,2 mm 1 m/S 742 mmHg 55%
    11:00 +30°C° 0,2 mm 2 m/S 742 mmHg 50%
    12:00 +31°C° 0,2 mm 2 m/S 742 mmHg 44%
    13:00 +31°C° 0 mm 2 m/S 742 mmHg 45%
    14:00 +31°C° 0 mm 2 m/S 742 mmHg 46%
    15:00 +31°C° 0 mm 2 m/S 742 mmHg 47%
    16:00 +31°C° 0 mm 2 m/S 742 mmHg 48%
    17:00 +30°C° 0 mm 2 m/S 742 mmHg 49%
    18:00 +30°C° 0 mm 2 m/S 742 mmHg 49%
    19:00 +29°C° 0 mm 2 m/S 742 mmHg 53%
    20:00 +28°C° 0 mm 2 m/S 742 mmHg 57%
    21:00 +26°C° 0 mm 2 m/S 743 mmHg 61%
    22:00 +26°C° 0,3 mm 1 m/S 742 mmHg 63%
    23:00 +25°C° 0,3 mm 1 m/S 742 mmHg 66%

    Morgen, 24 Juli, Dienstag

    Zeit Temperatur Niederschläge Wind Luftdruck Luftfeuchtigkeit
    00:00 +24°C° 0,3 mm 1 m/S 742 mmHg 69%
    01:00 +24°C° 0 mm 1 m/S 742 mmHg 69%
    02:00 +24°C° 0 mm 1 m/S 742 mmHg 70%
    03:00 +21°C° 0 mm 0 m/S 742 mmHg 70%
    04:00 +23°C° 0,1 mm 1 m/S 742 mmHg 71%
    05:00 +23°C° 0,1 mm 1 m/S 743 mmHg 72%
    06:00 +23°C° 0,1 mm 2 m/S 743 mmHg 73%
    07:00 +25°C° 0,2 mm 2 m/S 743 mmHg 68%
    08:00 +27°C° 0,2 mm 3 m/S 743 mmHg 62%
    09:00 +28°C° 0,2 mm 3 m/S 743 mmHg 57%
    10:00 +30°C° 0 mm 3 m/S 743 mmHg 52%
    11:00 +31°C° 0 mm 3 m/S 743 mmHg 47%
    12:00 +33°C° 0 mm 3 m/S 743 mmHg 43%
    13:00 +33°C° 0 mm 3 m/S 743 mmHg 42%
    14:00 +34°C° 0 mm 3 m/S 742 mmHg 40%
    15:00 +34°C° 0 mm 3 m/S 742 mmHg 39%
    16:00 +34°C° 0,1 mm 2 m/S 742 mmHg 41%
    17:00 +32°C° 0,1 mm 2 m/S 742 mmHg 43%
    18:00 +32°C° 0,1 mm 2 m/S 742 mmHg 45%
    19:00 +31°C° 0,3 mm 2 m/S 742 mmHg 48%
    20:00 +30°C° 0,3 mm 2 m/S 743 mmHg 50%
    21:00 +28°C° 0,3 mm 2 m/S 743 mmHg 53%
    22:00 +28°C° 0,6 mm 3 m/S 743 mmHg 57%
    23:00 +27°C° 0,6 mm 3 m/S 743 mmHg 61%

    übermorgen, 25 Juli, Mittwoch

    Zeit Temperatur Niederschläge Wind Luftdruck Luftfeuchtigkeit
    00:00 +26°C° 0,6 mm 3 m/S 742 mmHg 65%
    01:00 +25°C° 1,1 mm 3 m/S 742 mmHg 70%
    02:00 +25°C° 1,1 mm 3 m/S 742 mmHg 75%
    03:00 +24°C° 1,1 mm 3 m/S 742 mmHg 80%
    04:00 +24°C° 0,1 mm 3 m/S 742 mmHg 81%
    05:00 +24°C° 0,1 mm 3 m/S 742 mmHg 81%
    06:00 +23°C° 0,1 mm 4 m/S 742 mmHg 82%
    07:00 +25°C° 0,2 mm 4 m/S 743 mmHg 77%
    08:00 +27°C° 0,2 mm 5 m/S 743 mmHg 72%
    09:00 +28°C° 0,2 mm 5 m/S 743 mmHg 67%
    10:00 +29°C° 0,4 mm 5 m/S 743 mmHg 62%
    11:00 +32°C° 0,4 mm 5 m/S 743 mmHg 57%
    12:00 +33°C° 0,4 mm 5 m/S 743 mmHg 52%
    13:00 +33°C° 0 mm 5 m/S 743 mmHg 51%
    14:00 +33°C° 0 mm 5 m/S 743 mmHg 50%
    15:00 +34°C° 0 mm 5 m/S 742 mmHg 48%
    16:00 +33°C° 0,1 mm 5 m/S 742 mmHg 50%
    17:00 +33°C° 0,1 mm 4 m/S 742 mmHg 51%
    18:00 +33°C° 0,1 mm 4 m/S 742 mmHg 53%
    19:00 +32°C° 0 mm 4 m/S 743 mmHg 54%
    20:00 +30°C° 0 mm 4 m/S 743 mmHg 56%
    21:00 +29°C° 0 mm 4 m/S 743 mmHg 57%
    22:00 +28°C° 0,1 mm 4 m/S 743 mmHg 58%
    23:00 +27°C° 0,1 mm 4 m/S 743 mmHg 59%

    26 Juli, Donnerstag

    Zeit Temperatur Niederschläge Wind Luftdruck Luftfeuchtigkeit
    00:00 +27°C° 0,1 mm 3 m/S 743 mmHg 60%
    01:00 +26°C° 0 mm 4 m/S 743 mmHg 61%
    02:00 +26°C° 0 mm 4 m/S 742 mmHg 61%
    03:00 +26°C° 0 mm 4 m/S 742 mmHg 62%
    04:00 +25°C° 0 mm 4 m/S 743 mmHg 61%
    05:00 +25°C° 0 mm 4 m/S 743 mmHg 61%
    06:00 +25°C° 0 mm 5 m/S 743 mmHg 60%
    07:00 +26°C° 0 mm 5 m/S 743 mmHg 56%
    08:00 +27°C° 0 mm 4 m/S 743 mmHg 52%
    09:00 +29°C° 0 mm 4 m/S 744 mmHg 48%
    10:00 +30°C° 0 mm 4 m/S 744 mmHg 45%
    11:00 +32°C° 0 mm 4 m/S 744 mmHg 43%
    12:00 +34°C° 0 mm 4 m/S 744 mmHg 41%
    13:00 +34°C° 0 mm 4 m/S 744 mmHg 41%
    14:00 +34°C° 0 mm 4 m/S 744 mmHg 42%
    15:00 +35°C° 0 mm 4 m/S 743 mmHg 43%
    16:00 +34°C° 0 mm 4 m/S 743 mmHg 44%
    17:00 +34°C° 0 mm 3 m/S 743 mmHg 45%
    18:00 +34°C° 0 mm 3 m/S 743 mmHg 46%
    19:00 +33°C° 0,3 mm 3 m/S 743 mmHg 52%
    20:00 +30°C° 0,3 mm 3 m/S 743 mmHg 57%
    21:00 +28°C° 0,3 mm 3 m/S 743 mmHg 62%
    22:00 +28°C° 0,8 mm 4 m/S 744 mmHg 67%
    23:00 +27°C° 0,8 mm 4 m/S 744 mmHg 72%

    27 Juli, Freitag

    Zeit Temperatur Niederschläge Wind Luftdruck Luftfeuchtigkeit
    00:00 +26°C° 0,8 mm 5 m/S 744 mmHg 77%
    01:00 +26°C° 0,5 mm 5 m/S 744 mmHg 75%
    02:00 +25°C° 0,5 mm 5 m/S 744 mmHg 74%
    03:00 +25°C° 0,5 mm 5 m/S 744 mmHg 72%
    04:00 +25°C° 0 mm 5 m/S 744 mmHg 71%
    05:00 +23°C° 0 mm 5 m/S 744 mmHg 69%
    06:00 +23°C° 0 mm 5 m/S 744 mmHg 68%
    07:00 +25°C° 0,1 mm 5 m/S 744 mmHg 64%
    08:00 +26°C° 0,1 mm 6 m/S 744 mmHg 59%
    09:00 +28°C° 0,1 mm 6 m/S 744 mmHg 55%
    10:00 +29°C° 0,1 mm 6 m/S 744 mmHg 51%
    11:00 +30°C° 0,1 mm 6 m/S 745 mmHg 47%
    12:00 +33°C° 0,1 mm 6 m/S 745 mmHg 43%
    13:00 +34°C° 0 mm 6 m/S 744 mmHg 41%
    14:00 +34°C° 0 mm 6 m/S 744 mmHg 39%
    15:00 +35°C° 0 mm 6 m/S 744 mmHg 37%
    16:00 +35°C° 0 mm 5 m/S 744 mmHg 38%
    17:00 +35°C° 0 mm 5 m/S 744 mmHg 40%
    18:00 +35°C° 0 mm 4 m/S 744 mmHg 41%
    19:00 +33°C° 0 mm 5 m/S 744 mmHg 45%
    20:00 +30°C° 0 mm 6 m/S 744 mmHg 48%
    21:00 +28°C° 0 mm 6 m/S 744 mmHg 52%
    22:00 +27°C° 0,3 mm 6 m/S 744 mmHg 57%
    23:00 +26°C° 0,3 mm 6 m/S 744 mmHg 63%

    28 Juli, Samstag

    Zeit Temperatur Niederschläge Wind Luftdruck Luftfeuchtigkeit
    00:00 +23°C° 0,3 mm 6 m/S 744 mmHg 68%
    01:00 +23°C° 0,3 mm 6 m/S 743 mmHg 69%
    02:00 +23°C° 0,3 mm 5 m/S 743 mmHg 71%
    03:00 +23°C° 0,3 mm 5 m/S 743 mmHg 72%
    04:00 +23°C° 0,2 mm 5 m/S 743 mmHg 71%
    05:00 +23°C° 0,2 mm 5 m/S 743 mmHg 71%
    06:00 +23°C° 0,2 mm 5 m/S 744 mmHg 70%
    07:00 +24°C° 0,2 mm 6 m/S 744 mmHg 64%
    08:00 +27°C° 0,2 mm 6 m/S 744 mmHg 58%
    09:00 +28°C° 0,2 mm 6 m/S 744 mmHg 53%
    10:00 +29°C° 0 mm 6 m/S 744 mmHg 49%
    11:00 +30°C° 0 mm 6 m/S 744 mmHg 46%
    12:00 +32°C° 0 mm 6 m/S 744 mmHg 42%
    13:00 +32°C° 0 mm 6 m/S 744 mmHg 40%
    14:00 +33°C° 0 mm 6 m/S 744 mmHg 37%
    15:00 +34°C° 0 mm 6 m/S 744 mmHg 34%
    16:00 +34°C° 0 mm 6 m/S 744 mmHg 36%
    17:00 +34°C° 0 mm 5 m/S 744 mmHg 37%
    18:00 +33°C° 0 mm 5 m/S 744 mmHg 39%
    19:00 +32°C° 0 mm 6 m/S 744 mmHg 40%
    20:00 +29°C° 0 mm 6 m/S 744 mmHg 42%
    21:00 +28°C° 0 mm 7 m/S 744 mmHg 44%
    22:00 +27°C° 0 mm 7 m/S 744 mmHg 44%
    23:00 +27°C° 0 mm 7 m/S 744 mmHg 44%
    Mehr zeigen